Regional Weather Roundup
Issued by NWS Northern Indiana

Home | Current Version | Previous Version | Graphics & Text | Print | Product List | Glossary On
Versions: 1 2 3 4 5 6 7 8 9 10 11 12 13 14 15 16 17 18 19 20 21 22 23 24 25 26 27 28 29 30 31 32 33 34 35 36 37 38 39 40 41 42 43 44 45 46 47 48 49 50
072
ASUS43 KIWX 231500
RWRIWX

KIWX WEATHER ROUNDUP
NATIONAL WEATHER SERVICE NORTHERN INDIANA
1100 AM EDT THU MAR 23 2017

NOTE: "FAIR" INDICATES FEW OR NO CLOUDS BELOW 12,000 FEET WITH NO
SIGNIFICANT WEATHER AND/OR OBSTRUCTIONS TO VISIBILITY.

* THESE STATIONS ARE NOT UNDER NWS QUALITY CONTROL. THEY ALSO MAY NOT
  REPORT WEATHER SUCH AS PRECIPITATION OR FOG.

INZ001>027-231600-
NORTHERN INDIANA

CITY           SKY/WX    TMP DP  RH WIND       PRES   REMARKS
GARY*          CLOUDY    34  16  47 SE9       30.42S WCI  26
MICHIGAN CITY* CLOUDY    32  14  47 SE9       30.43S WCI  24
KNOX*          CLOUDY    32  -4  21 SE13      30.43S WCI  22
SOUTH BEND     CLOUDY    31  10  41 SE14      30.44F WCI  21
ELKHART*       CLOUDY    32   9  37 SE12      30.45S WCI  23
GOSHEN         CLOUDY    32  10  40 SE15      30.45F WCI  22
MONTICELLO*    CLOUDY    33  21  61 SE7       30.42S WCI  27
ANGOLA*        MOSUNNY   30  12  47 SE18      30.46F WCI  18
FORT WAYNE     PTSUNNY   34  19  54 SE14      30.47F WCI  25
PERU/GRISSOM   CLOUDY    33  21  61 E16       30.41F WCI  22

$$
INZ028>050-231600-
CENTRAL INDIANA

CITY           SKY/WX    TMP DP  RH WIND       PRES   REMARKS
LAFAYETTE      CLOUDY    36  23  59 SE8       30.42S
KOKOMO*        CLOUDY    33  23  66 SE13      30.44F WCI  24
MUNCIE*        MOSUNNY   37  20  50 SE12      30.44F
INDIANAPOLIS   MOSUNNY   38  19  46 E16       30.41F

$$
MIZ043>046-050>051-056>058-064>065-071>073-077>080-231600-
SOUTHWEST LOWER MICHIGAN

CITY           SKY/WX    TMP DP  RH WIND       PRES   REMARKS
BATTLE CREEK   PTSUNNY   33  13  43 S9        30.48S WCI  25
BENTON HARBOR  CLOUDY    33  13  43 SE12G22   30.43F WCI  24
COLDWATER*     PTSUNNY   32   9  37 SE14G22   30.47F WCI  22
HILLSDALE*     SUNNY     32  14  47 SE14      30.47F WCI  22
HOLLAND        CLOUDY    35  17  47 SE8       30.46F WCI  29
GRAND RAPIDS   PTSUNNY   33  16  49 SE10      30.46F WCI  25
KALAMAZOO      CLOUDY    34  11  38 SE10      30.47F WCI  26
STURGIS*       CLOUDY    32   9  38 SE14G20   30.46S WCI  22
THREE RIVERS*  CLOUDY    32  10  39 SE8       30.47F WCI  25

$$
OHZ001>008-015>018-024>025-231600-
NORTHWEST OHIO

CITY           SKY/WX    TMP DP  RH WIND       PRES   REMARKS
DEFIANCE       MOSUNNY   31  14  49 E13       30.51S WCI  21
FINDLAY        SUNNY     33  14  45 E10       30.50F WCI  25
TOLEDO EXPRESS SUNNY     33   8  35 E13       30.53F WCI  24
TOLEDO METCALF SUNNY     34  13  41 E14       30.55F WCI  25
LIMA           PTSUNNY   34  17  50 SE10      30.48S WCI  26

$$
AND FOR LAKE MICHIGAN COASTAL AND OPEN LAKE BUOY OBSERVATIONS

STATION/POSITION TEMP    WIND        PRES    VSBY  WAVE
                 AIR SEA DIR/SP/G                  HT/PER
                 (F)     (DEG/KT/KT) (MB)    (MI)  (FT/S)
CALUMET HARBOR    33     150/  8/ 14 1029.1S
MICHIGAN CITY     32     120/ 11/ 16   N/A
BURNS HARBOR      33     130/  7/ 13 1030.1S
SAINT JOSEPH      30     140/  2/  7 1031.8

$$
&&




USA.gov is the U.S. government's official web portal to all federal, state and local government web resources and services.